GW0374 Weather Reports


time (UTC)temp
F
wind
direction
speed
knots
gust
knots
rain 1hr
in
rain 24hr
in
rain mn
in
humidity
%
barometer
mb
20260508091024 57 0 0.0 0.0 0.02 0.35 0.02 69 1016.0
20260508090503 56 292 0.0 1.7 0.02 0.34 0.02 69 1016.3
20260508090003 57 274 0.9 2.6 0.02 0.34 0.02 69 1016.1
20260508085524 57 268 0.9 2.6 0.02 0.34 0.02 71 1016.5
20260508085003 57 259 0.0 2.6 0.02 0.34 0.02 69 1016.6
20260508084503 57 205 0.0 1.7 0.01 0.33 0.01 69 1016.4
20260508084003 57 151 0.0 1.7 0.00 0.32 0.00 69 1016.5
20260508083503 57 134 0.9 2.6 0.00 0.32 0.00 69 1016.1
20260508083003 56 135 0.9 2.6 0.00 0.32 0.00 69 1016.1
20260508082503 56 131 0.0 1.7 0.00 0.32 0.00 69 1015.9
20260508082003 56 283 0.0 0.9 0.00 0.32 0.00 69 1015.9
20260508081503 56 282 0.9 4.3 0.00 0.32 0.00 69 1015.9
20260508081003 56 282 1.7 4.3 0.00 0.32 0.00 69 1016.0
20260508080504 56 282 0.9 3.5 0.00 0.32 0.00 69 1015.9
20260508080004 56 141 0.0 0.9 0.00 0.32 0.00 68 1015.8
20260508075525 56 138 0.0 1.7 0.00 0.32 0.00 68 1015.5
20260508075003 56 133 0.0 1.7 0.00 0.32 0.00 68 1015.4
20260508074504 56 127 0.0 1.7 0.00 0.32 0.00 68 1015.4
20260508074024 56 0 0.0 0.0 0.00 0.32 0.00 66 1015.5
20260508073503 56 0 0.0 0.0 0.00 0.32 0.00 66 1015.5
20260507210024 60 69 0.0 0.9 0.00 0.32 0.32 90 1015.6
20260507195503 61 0 0.0 0.0 0.00 0.32 0.32 87 1015.0
20260507195004 61 245 0.0 0.9 0.00 0.32 0.32 87 1014.9
20260507194504 61 245 0.0 0.9 0.00 0.32 0.32 88 1014.7
20260507194024 61 245 0.0 0.9 0.00 0.32 0.32 88 1014.7
20260507193503 61 0 0.0 0.0 0.00 0.32 0.32 88 1014.7
20260507193003 61 245 0.0 0.9 0.00 0.32 0.32 90 1014.5
20260507192525 61 247 0.0 0.9 0.00 0.32 0.32 90 1014.5
20260507192004 61 252 0.0 0.9 0.00 0.32 0.32 88 1014.5
20260507191503 61 252 0.0 0.9 0.00 0.32 0.32 90 1014.4
20260507191003 61 248 0.0 0.9 0.00 0.32 0.32 88 1014.3
20260507190503 61 261 0.0 0.9 0.00 0.32 0.32 88 1014.2
20260507190024 62 275 0.0 0.9 0.00 0.32 0.32 88 1014.2
20260507185503 62 349 0.0 0.9 0.00 0.32 0.32 88 1014.1
20260507185025 62 349 0.0 0.9 0.00 0.32 0.32 88 1014.2
20260507184504 62 0 0.0 0.0 0.00 0.32 0.32 87 1014.1
20260507184004 62 351 0.0 0.9 0.00 0.32 0.32 87 1014.0
20260507183503 62 351 0.0 0.9 0.00 0.32 0.32 87 1014.0
20260507183024 62 351 0.0 0.9 0.00 0.32 0.32 85 1013.9
20260507182503 62 4 0.0 2.6 0.00 0.32 0.32 85 1013.8
20260507182003 62 327 0.9 2.6 0.00 0.32 0.32 83 1013.7
20260507181524 62 308 1.7 6.1 0.00 0.32 0.32 83 1013.7
20260507181004 63 308 1.7 6.1 0.00 0.32 0.32 80 1013.6
20260507180503 63 322 0.9 4.3 0.00 0.32 0.32 80 1013.6
20260507180003 64 331 0.9 5.2 0.00 0.32 0.32 79 1013.5
20260507175503 64 329 1.7 5.2 0.00 0.32 0.32 77 1013.4
20260507175003 64 332 1.7 5.2 0.00 0.32 0.32 83 1013.5
20260507174504 65 330 1.7 6.1 0.00 0.32 0.32 83 1013.5
20260507174003 65 325 1.7 6.1 0.00 0.32 0.32 83 1013.4
20260507173503 66 310 0.9 3.5 0.00 0.32 0.32 82 1013.3
20260507173003 67 285 0.0 3.5 0.00 0.32 0.32 79 1013.3
20260507172503 68 257 0.0 1.7 0.00 0.32 0.32 79 1013.4
20260507172003 68 253 0.9 3.5 0.00 0.32 0.32 77 1013.3
20260507171503 67 260 0.9 3.5 0.00 0.32 0.32 77 1013.3
20260507171004 67 269 0.9 2.6 0.00 0.32 0.32 77 1013.2
20260507170503 67 249 0.9 2.6 0.00 0.32 0.32 75 1013.2
20260507170003 66 241 0.0 2.6 0.00 0.32 0.32 77 1013.2
20260507165503 66 270 0.0 2.6 0.00 0.32 0.32 79 1013.3
20260507165003 65 265 0.0 2.6 0.00 0.32 0.32 79 1013.3
20260507164503 66 174 0.0 2.6 0.00 0.32 0.32 77 1013.3
20260507164004 66 235 0.0 2.6 0.00 0.32 0.32 79 1013.3
20260507163504 65 270 0.0 2.6 0.00 0.32 0.32 79 1013.3
20260507163003 64 283 0.9 3.5 0.00 0.32 0.32 80 1013.3
20260507162503 64 287 0.9 3.5 0.00 0.32 0.32 80 1013.3
20260507162003 64 297 0.9 2.6 0.00 0.32 0.32 79 1013.3
20260507161525 64 301 0.0 2.6 0.00 0.32 0.32 79 1013.2
20260507161003 64 261 0.0 1.7 0.00 0.32 0.32 80 1013.2
20260507160503 64 289 0.0 2.6 0.00 0.32 0.32 80 1013.1
20260507160003 63 299 0.9 4.3 0.00 0.32 0.32 79 1013.2
20260507155503 63 296 0.9 5.2 0.00 0.32 0.32 80 1013.1
20260507155003 63 291 0.9 5.2 0.00 0.32 0.32 80 1013.2
20260507154504 63 289 1.7 4.3 0.00 0.32 0.32 82 1013.1
20260507154004 63 294 1.7 4.3 0.00 0.32 0.32 82 1013.2
20260507153504 63 295 1.7 6.1 0.00 0.32 0.32 83 1013.2
20260507153003 63 288 2.6 6.1 0.00 0.32 0.32 83 1013.2
20260507152503 64 288 2.6 6.1 0.00 0.32 0.32 82 1013.2
20260507152004 64 288 1.7 4.3 0.00 0.32 0.32 82 1013.1
20260507151504 64 285 2.6 6.1 0.00 0.32 0.32 82 1013.2
20260507151003 64 285 2.6 6.1 0.00 0.32 0.32 82 1013.0
20260507150504 64 289 2.6 5.2 0.00 0.32 0.32 79 1012.8
20260507150003 64 291 3.5 7.0 0.00 0.32 0.32 80 1012.9
20260507145503 64 287 3.5 7.0 0.00 0.32 0.32 79 1012.8
20260507145003 64 284 3.5 7.0 0.00 0.32 0.32 83 1012.9
20260507144503 64 285 3.5 7.0 0.00 0.32 0.32 82 1012.9
20260507144003 64 283 2.6 7.0 0.00 0.32 0.32 83 1013.0
20260507143524 64 278 2.6 5.2 0.00 0.32 0.32 83 1013.0
20260507143003 64 275 2.6 5.2 0.00 0.32 0.32 82 1012.9
20260507142503 64 273 3.5 6.1 0.00 0.32 0.32 85 1012.9
20260507142004 64 276 3.5 7.8 0.00 0.32 0.32 85 1012.7
20260507141504 65 283 4.3 7.8 0.00 0.32 0.32 83 1012.7
20260507141003 65 284 4.3 7.0 0.00 0.32 0.32 80 1012.6
20260507140503 66 288 2.6 7.0 0.00 0.32 0.32 80 1012.7
20260507140003 66 294 0.9 4.3 0.00 0.32 0.32 79 1013.0
20260507135503 65 288 0.0 2.6 0.00 0.32 0.32 80 1012.8
20260507135003 65 109 0.0 1.7 0.01 0.32 0.32 82 1012.9
20260507134503 65 128 0.0 3.5 0.06 0.32 0.32 79 1013.0
20260507134003 64 128 0.9 3.5 0.06 0.32 0.32 80 1012.9
20260507133503 64 125 0.9 3.5 0.06 0.32 0.32 77 1013.0
20260507133004 65 127 0.9 3.5 0.06 0.32 0.32 79 1013.0
20260507132503 65 225 0.0 1.7 0.06 0.32 0.32 75 1012.9
20260507132003 64 273 0.0 1.7 0.06 0.32 0.32 74 1012.9
20260507131503 62 0 0.0 0.0 0.06 0.32 0.32 72 1013.0
20260507131004 62 0 0.0 0.0 0.06 0.32 0.32 72 1013.0
20260507130503 62 91 0.0 2.6 0.06 0.32 0.32 74 1013.2
20260507130026 62 82 0.0 2.6 0.07 0.32 0.32 72 1013.2
20260507125503 63 33 0.0 3.5 0.07 0.32 0.32 71 1013.1
20260507125004 64 354 0.9 3.5 0.06 0.31 0.31 68 1013.2
20260507124503 64 258 0.0 2.6 0.02 0.27 0.27 65 1013.1
20260507124004 64 259 0.0 2.6 0.02 0.26 0.26 64 1013.2
20260507123503 64 260 0.9 2.6 0.02 0.26 0.26 64 1013.2
20260507123004 64 258 0.0 2.6 0.02 0.26 0.26 64 1013.3
20260507122503 64 250 0.0 1.7 0.03 0.26 0.26 64 1013.4
20260507122005 64 276 0.9 2.6 0.03 0.26 0.26 64 1013.5
20260507121504 64 272 0.9 2.6 0.04 0.26 0.26 64 1013.5
20260507121003 64 273 0.9 2.6 0.04 0.26 0.26 65 1013.5
20260507120503 64 278 0.0 2.6 0.05 0.26 0.26 69 1013.5
20260507120025 63 276 0.0 2.6 0.04 0.25 0.25 69 1013.4
20260507115503 63 0 0.0 0.0 0.04 0.25 0.25 69 1013.5
20260507115003 63 219 0.0 2.6 0.05 0.25 0.25 69 1013.6
20260507114503 63 224 0.0 2.6 0.05 0.25 0.25 69 1013.6
20260507114003 63 241 0.0 1.7 0.05 0.24 0.24 69 1013.6
20260507113503 63 239 0.0 1.7 0.05 0.24 0.24 69 1013.6
20260507113004 63 225 0.0 1.7 0.05 0.24 0.24 68 1013.7
20260507112504 63 231 0.0 2.6 0.05 0.23 0.23 69 1013.8
20260507112003 63 256 0.0 3.5 0.06 0.23 0.23 68 1013.9
20260507111506 62 257 0.9 3.5 0.06 0.22 0.22 66 1013.9
20260507111004 63 240 0.0 2.6 0.08 0.22 0.22 66 1013.8
20260507110504 63 227 0.0 1.7 0.14 0.21 0.21 66 1013.8
20260507110004 62 251 0.0 1.7 0.19 0.21 0.21 66 1013.8
20260507105503 62 248 0.0 1.7 0.21 0.21 0.21 66 1014.0
20260507105004 62 229 0.0 0.9 0.20 0.20 0.20 65 1014.1
20260507104504 62 224 0.0 0.9 0.20 0.20 0.20 65 1014.0
20260507104004 62 224 0.0 1.7 0.20 0.20 0.20 66 1014.1
20260507103504 61 224 0.0 1.7 0.20 0.20 0.20 66 1014.1
20260507103004 61 0 0.0 0.0 0.19 0.19 0.19 71 1014.1
20260507102503 61 0 0.0 0.0 0.18 0.18 0.18 79 1014.0
20260507095003 66 33 0.9 7.0 0.00 0.00 0.00 80 1013.6
20260507094524 66 18 0.9 7.0 0.00 0.00 0.00 79 1013.7
20260507094024 66 340 0.0 3.5 0.00 0.00 0.00 79 1013.7
20260507093524 66 27 0.9 6.1 0.00 0.00 0.00 80 1013.7
20260507093003 66 35 0.9 6.1 0.00 0.00 0.00 80 1013.7
20260507092503 65 43 0.9 3.5 0.00 0.00 0.00 80 1013.7
20260507092003 65 36 1.7 6.1 0.00 0.00 0.00 80 1013.7
20260507091503 65 40 1.7 6.1 0.00 0.00 0.00 80 1013.8